Regional Weather Roundup
Issued by NWS

Home | Current Version | Previous Version | Text Only | Print | Product List | Glossary Off
Versions: 1 2 3 4 5 6 7 8 9 10 11 12 13 14 15 16 17 18 19 20 21 22 23 24 25 26 27 28 29 30 31 32 33 34 35 36 37 38 39 40 41 42 43 44 45 46 47 48 49 50

000
ASUS43 KLMK 252302
RWRKY
KENTUCKY REGIONAL WEATHER ROUNDUP
NATIONAL WEATHER SERVICE LOUISVILLE KY
700 PM EDT MON JUL 25 2016

NOTE "FAIR" INDICATES FEW OR NO CLOUDS BELOW 12,000 FEET
WITH NO SIGNIFICANT WEATHER AND/OR OBSTRUCTIONS TO VISIBILITY.

KYZ001>023-026-027-061>063-070>075-260000-
WESTERN AND SOUTH CENTRAL KENTUCKY

CITY           SKY/WX    TMP DP  RH WIND       PRES   REMARKS
PADUCAH        MOSUNNY   81  74  79 S5        29.96S
HENDERSON      MOSUNNY   82  73  74 S3        29.97R
OWENSBORO      CLOUDY    80  76  87 S6        29.98S
HOPKINSVILLE   SUNNY     89  78  70 N7        29.96R HX 103
BOWLING GREEN  CLOUDY    81  72  74 NW12G17   30.01R THUNDER
GLASGOW        NOT AVBL
$$

KYZ024-025-028>034-038-045-046-053-260000-
NORTH CENTRAL KENTUCKY

CITY           SKY/WX    TMP DP  RH WIND       PRES   REMARKS
LOUISVILLE/SDF CLOUDY    80  74  81 SW5       29.98R
LOUISVILLE/LOU CLOUDY    80  73  79 W3        29.98S
FORT KNOX      CLOUDY    76  74  92 S7        29.99S
$$

KYZ035>037-039>044-047>052-055>060-089>105-260000-
NORTHEAST KENTUCKY

CITY           SKY/WX    TMP DP  RH WIND       PRES   REMARKS
LEXINGTON      CLOUDY    81  70  69 W7        30.01R
COVINGTON      CLOUDY    85  76  74 S5        29.97F HX  94
FRANKFORT      CLOUDY    78  70  76 SW7       30.00R
$$

KYZ054-064>069-076>088-106>120-260000-
SOUTHEAST KENTUCKY

CITY           SKY/WX    TMP DP  RH WIND       PRES   REMARKS
JACKSON        CLOUDY    77  73  87 CALM      30.02F
LONDON         PTSUNNY   87  73  62 NW6       30.01S HX  94
SOMERSET       CLOUDY    86  70  58 CALM      29.99F HX  90
MIDDLESBORO    MOSUNNY   85  74  69 NE5       30.01F HX  93
MONTICELLO     CLOUDY   N/A N/A N/A VRB6G18   30.01S
$$





USA.gov is the U.S. government's official web portal to all federal, state and local government web resources and services.